GFSWCAN_prec_precacc_102.txt.gz
Total_Precipitation_Accumulation
1.23 0.94 0.70 0.77 0.88 0.65 0.55 0.52 0.62 0.62 0.66 0.67 0.61 0.79 0.78 0.83 1.27 2.41 2.35 1.54 1.58 1.33 0.38 0.29 0.15 0.08 0.05 0.10 0.31 0.37 0.53 0.53 0.66 0.73 0.42 0.21 0.09 0.10 0.18 0.38 0.38 0.31 0.49 0.44 0.44 0.40 0.13 0.07 0.16 0.32 0.27 0.10 0.06 0.03
1.33 1.04 0.69 0.63 0.74 0.61 0.52 0.49 0.55 0.53 0.55 0.66 0.57 0.68 0.67 0.69 1.02 2.01 3.03 2.22 1.42 1.86 0.90 0.32 0.24 0.09 0.04 0.03 0.18 0.47 0.48 0.51 0.40 0.42 0.33 0.29 0.23 0.17 0.12 0.20 0.49 0.29 0.23 0.27 0.27 0.22 0.10 0.04 0.09 0.16 0.11 0.11 0.05 0.06
1.22 0.95 0.82 0.72 0.63 0.57 0.48 0.49 0.58 0.50 0.49 0.60 0.61 0.62 0.64 0.66 0.98 1.53 2.65 2.01 2.56 2.77 2.12 0.51 0.34 0.20 0.10 0.03 0.12 0.42 0.31 0.60 0.82 0.60 0.66 0.51 0.40 0.22 0.20 0.26 0.47 0.27 0.15 0.19 0.17 0.04 0.05 0.06 0.05 0.03 0.02 0.06 0.08 0.14
1.14 0.96 0.89 0.89 0.66 0.51 0.39 0.45 0.61 0.53 0.50 0.53 0.63 0.62 0.70 0.82 0.98 1.26 2.00 2.21 2.99 3.17 2.32 0.84 0.19 0.23 0.20 0.09 0.10 0.15 0.15 0.31 0.52 0.69 0.82 0.70 0.41 0.21 0.29 0.18 0.16 0.24 0.30 0.13 0.13 0.10 0.06 0.06 0.05 0.11 0.19 0.26 0.25 0.19
1.09 1.08 1.04 0.88 0.70 0.53 0.50 0.60 0.71 0.64 0.61 0.55 0.73 0.77 0.98 1.23 1.09 1.23 1.53 1.78 2.47 1.96 1.51 0.94 0.50 0.15 0.31 0.27 0.26 0.18 0.23 0.35 0.60 0.85 0.71 0.48 0.17 0.21 0.15 0.15 0.21 0.11 0.26 0.33 0.32 0.27 0.28 0.18 0.30 0.42 0.32 0.21 0.21 0.16
1.11 0.89 0.84 0.80 0.68 0.68 0.68 0.79 0.81 0.77 0.65 0.65 0.86 1.12 1.28 1.36 1.70 2.42 3.37 2.43 1.79 1.64 2.37 1.56 0.81 0.32 0.43 0.51 0.48 0.63 0.32 0.52 0.68 0.81 0.56 0.38 0.26 0.35 0.33 0.17 0.13 0.06 0.07 0.28 0.35 0.30 0.47 0.35 0.27 0.14 0.13 0.10 0.05 0.02
0.86 0.73 0.76 0.78 0.66 0.78 0.89 0.87 0.83 0.69 0.82 0.97 1.16 1.20 1.10 1.81 2.49 2.92 2.00 1.32 1.12 1.85 3.01 1.89 0.91 0.44 0.59 0.67 0.53 0.90 0.81 0.96 0.86 0.90 0.70 0.30 0.22 0.60 0.54 0.18 0.02 0.07 0.07 0.11 0.26 0.22 0.37 0.24 0.12 0.08 0.03 0.01 0.01 0.03
0.89 0.75 0.65 0.67 0.61 0.64 0.86 1.02 0.97 0.97 1.12 1.14 1.12 1.21 1.72 2.92 3.14 2.05 0.95 1.09 1.12 1.90 2.19 1.93 1.12 0.94 0.88 1.10 0.69 0.61 0.89 1.33 1.25 1.04 0.61 0.47 0.36 0.52 0.53 0.07 0.01 0.02 0.03 0.08 0.10 0.06 0.09 0.08 0.03 0.01 0.01 0.02 0.05 0.09
0.67 0.63 0.67 0.66 0.59 0.56 0.57 0.79 1.06 1.26 1.45 1.75 1.95 2.39 3.67 4.69 3.57 1.61 1.36 1.99 1.76 2.11 1.91 1.12 0.88 1.20 1.26 1.33 1.07 0.78 0.80 1.40 1.14 0.85 0.60 0.53 0.57 0.48 0.19 0.12 0.10 0.02 0.01 0.01 0.00 0.01 0.02 0.04 0.04 0.03 0.04 0.08 0.16 0.15
0.78 0.69 0.78 0.80 0.67 0.60 0.59 0.76 1.23 1.77 2.65 3.25 3.77 4.86 5.41 3.50 1.85 2.00 3.41 3.38 2.70 2.01 1.34 0.70 0.62 1.04 1.38 1.15 1.31 1.26 1.16 1.00 0.89 0.47 0.49 0.51 0.38 0.32 0.24 0.21 0.13 0.06 0.03 0.02 0.02 0.02 0.02 0.03 0.05 0.08 0.13 0.14 0.09 0.05
0.84 0.82 0.82 0.78 0.76 0.81 0.98 1.09 1.51 2.69 4.09 4.12 4.20 3.69 3.03 2.33 2.18 2.56 3.09 2.36 1.71 0.85 0.44 0.40 0.49 0.84 1.06 1.15 1.14 1.19 1.33 0.95 0.76 0.43 0.43 0.46 0.26 0.18 0.17 0.16 0.14 0.17 0.14 0.09 0.06 0.06 0.08 0.15 0.25 0.20 0.09 0.05 0.04 0.06
0.78 0.68 0.60 0.60 0.60 0.63 0.77 1.15 1.72 1.88 2.28 2.37 2.31 2.23 2.61 2.87 2.61 2.29 1.78 1.17 0.51 0.20 0.13 0.17 0.53 0.91 1.01 1.25 1.39 1.51 1.17 0.95 0.62 0.42 0.57 0.50 0.42 0.21 0.10 0.15 0.14 0.11 0.09 0.10 0.15 0.22 0.25 0.22 0.17 0.18 0.21 0.25 0.33 0.39
0.70 0.52 0.40 0.44 0.49 0.75 1.12 1.18 0.78 0.95 1.28 1.37 1.49 2.30 2.67 2.63 2.12 1.53 0.76 0.40 0.26 0.18 0.09 0.16 0.52 0.84 1.03 1.19 1.49 1.44 1.23 0.96 0.55 1.03 0.84 0.40 0.21 0.26 0.20 0.18 0.19 0.11 0.14 0.22 0.16 0.12 0.12 0.16 0.21 0.26 0.34 0.42 0.39 0.40
0.71 0.69 0.63 0.61 0.61 0.84 1.08 0.98 1.10 1.09 0.92 1.07 1.56 1.90 1.71 1.35 1.03 0.68 0.33 0.16 0.12 0.10 0.11 0.15 0.23 0.38 0.73 1.01 1.04 1.22 1.09 0.84 0.86 0.66 0.54 0.52 0.55 0.39 0.21 0.17 0.25 0.31 0.28 0.34 0.48 0.36 0.32 0.30 0.35 0.41 0.41 0.39 0.28 0.35
0.68 0.67 0.69 0.91 1.00 0.95 0.97 1.03 0.92 0.65 0.51 0.77 0.79 0.86 0.78 0.73 0.54 0.38 0.26 0.20 0.19 0.21 0.32 0.48 0.59 0.48 0.62 1.09 0.89 1.01 1.04 0.95 0.64 0.52 0.55 0.52 0.38 0.29 0.36 0.40 0.38 0.50 0.57 0.60 0.74 0.84 0.78 0.62 0.45 0.59 0.61 0.51 0.36 0.41
0.52 0.69 1.01 0.94 0.72 0.65 0.68 0.55 0.63 0.47 0.44 0.34 0.49 0.50 0.51 0.46 0.47 0.43 0.40 0.43 0.42 0.48 0.60 0.80 0.76 0.80 0.92 0.73 0.66 0.67 0.68 0.64 0.63 0.48 0.37 0.30 0.34 0.40 0.51 0.58 0.60 0.64 0.62 0.67 0.74 0.74 0.86 0.89 0.81 0.80 0.83 0.76 0.74 0.63
0.52 0.75 0.76 0.60 0.55 0.47 0.37 0.50 0.42 0.36 0.43 0.34 0.50 0.47 0.47 0.42 0.46 0.47 0.48 0.54 0.52 0.62 0.67 0.70 0.58 0.53 0.60 0.34 0.36 0.41 0.59 0.58 0.52 0.48 0.45 0.47 0.53 0.61 0.64 0.59 0.57 0.56 0.62 0.65 0.68 0.64 0.63 0.64 0.57 0.51 0.67 0.82 0.72 0.69
0.62 0.36 0.33 0.33 0.28 0.33 0.39 0.37 0.32 0.32 0.39 0.51 0.51 0.81 0.51 0.52 0.49 0.47 0.54 0.63 0.58 0.32 0.21 0.31 0.21 0.15 0.25 0.30 0.47 0.69 0.62 0.62 0.54 0.61 0.70 0.78 0.75 0.78 0.68 0.51 0.58 0.52 0.54 0.60 0.52 0.54 0.49 0.44 0.39 0.46 0.44 0.49 0.44 0.50
0.61 0.35 0.31 0.27 0.23 0.33 0.54 0.44 0.19 0.23 0.49 0.61 0.70 0.70 0.57 0.70 0.81 0.82 0.77 0.74 0.45 0.21 0.20 0.29 0.32 0.31 0.43 0.52 0.67 0.77 0.74 0.70 0.75 0.84 0.94 1.03 0.96 0.80 0.74 0.62 0.56 0.55 0.52 0.55 0.44 0.42 0.48 0.46 0.41 0.38 0.36 0.37 0.34 0.44
1.07 0.97 0.65 0.57 0.37 0.41 0.31 0.29 0.13 0.16 0.43 0.50 0.61 0.51 0.47 0.75 0.69 0.58 0.47 0.41 0.32 0.28 0.38 0.42 0.58 0.68 0.78 0.85 0.94 1.04 0.90 0.78 0.63 0.62 0.80 0.99 1.13 0.86 0.85 0.65 0.65 0.59 0.46 0.46 0.47 0.42 0.35 0.36 0.40 0.37 0.37 0.43 0.39 0.38
1.00 1.31 0.99 0.59 0.60 0.37 0.30 0.33 0.29 0.27 0.38 0.46 0.54 0.30 0.48 0.31 0.22 0.22 0.21 0.14 0.16 0.40 0.56 0.76 0.80 0.81 0.89 1.01 0.97 0.80 0.75 0.59 0.62 0.49 0.56 0.71 0.93 0.67 0.72 0.73 0.58 0.51 0.44 0.47 0.39 0.46 0.40 0.36 0.40 0.35 0.31 0.33 0.32 0.31
0.53 0.62 0.71 0.47 0.34 0.20 0.34 0.39 0.27 0.31 0.25 0.44 0.40 0.24 0.30 0.28 0.20 0.16 0.08 0.13 0.44 0.81 0.84 0.82 0.80 0.76 0.67 0.76 0.85 0.77 0.87 0.61 0.58 0.58 0.64 0.58 0.60 0.60 0.65 0.69 0.51 0.48 0.45 0.45 0.38 0.36 0.35 0.29 0.25 0.21 0.18 0.17 0.17 0.20
0.33 0.45 0.57 0.45 0.24 0.09 0.27 0.25 0.22 0.44 0.38 0.40 0.28 0.22 0.27 0.25 0.23 0.08 0.18 0.35 0.67 0.94 0.86 0.70 0.69 0.64 0.62 0.74 0.55 0.60 0.80 0.58 0.62 0.76 0.77 0.73 0.70 0.69 0.57 0.55 0.52 0.42 0.37 0.40 0.33 0.27 0.23 0.20 0.17 0.14 0.13 0.14 0.13 0.11
0.34 0.42 0.46 0.40 0.21 0.13 0.07 0.08 0.10 0.16 0.14 0.15 0.13 0.21 0.23 0.15 0.06 0.05 0.22 0.47 0.72 0.57 0.50 0.61 0.62 0.62 0.52 0.42 0.46 0.57 0.82 0.61 0.52 0.58 0.70 0.54 0.43 0.51 0.43 0.38 0.32 0.31 0.28 0.23 0.17 0.17 0.17 0.16 0.15 0.16 0.18 0.17 0.11 0.11
0.61 0.43 0.29 0.23 0.08 0.04 0.05 0.05 0.06 0.06 0.10 0.09 0.11 0.16 0.13 0.06 0.05 0.08 0.17 0.43 0.35 0.35 0.41 0.45 0.38 0.40 0.43 0.51 0.54 0.53 0.53 0.47 0.38 0.33 0.50 0.43 0.42 0.36 0.29 0.25 0.22 0.22 0.15 0.13 0.19 0.21 0.19 0.18 0.18 0.14 0.09 0.08 0.10 0.11
0.37 0.23 0.16 0.13 0.07 0.05 0.05 0.05 0.06 0.07 0.06 0.11 0.13 0.11 0.06 0.06 0.06 0.15 0.26 0.39 0.32 0.38 0.41 0.43 0.41 0.31 0.33 0.35 0.34 0.32 0.34 0.34 0.25 0.21 0.32 0.27 0.27 0.28 0.25 0.20 0.17 0.17 0.15 0.15 0.22 0.20 0.14 0.08 0.07 0.07 0.07 0.09 0.13 0.17
0.19 0.11 0.05 0.06 0.11 0.12 0.11 0.07 0.07 0.10 0.13 0.17 0.13 0.11 0.14 0.13 0.14 0.26 0.28 0.29 0.30 0.40 0.36 0.32 0.24 0.23 0.26 0.24 0.21 0.19 0.14 0.11 0.10 0.13 0.15 0.14 0.14 0.15 0.24 0.31 0.31 0.31 0.18 0.17 0.19 0.20 0.20 0.17 0.14 0.12 0.14 0.12 0.12 0.21
0.07 0.03 0.05 0.08 0.13 0.15 0.15 0.13 0.16 0.20 0.21 0.22 0.19 0.17 0.21 0.18 0.29 0.38 0.34 0.38 0.30 0.24 0.19 0.17 0.14 0.11 0.12 0.12 0.10 0.08 0.05 0.04 0.05 0.04 0.05 0.08 0.10 0.14 0.15 0.15 0.16 0.12 0.11 0.13 0.15 0.17 0.20 0.22 0.20 0.18 0.18 0.20 0.19 0.19
0.11 0.11 0.11 0.14 0.13 0.14 0.21 0.22 0.24 0.25 0.25 0.25 0.18 0.18 0.20 0.31 0.44 0.36 0.36 0.28 0.24 0.17 0.14 0.15 0.18 0.10 0.07 0.04 0.03 0.05 0.08 0.08 0.08 0.06 0.05 0.07 0.14 0.15 0.11 0.11 0.12 0.12 0.11 0.09 0.10 0.16 0.20 0.23 0.21 0.19 0.24 0.27 0.21 0.24
0.07 0.08 0.08 0.04 0.09 0.15 0.23 0.15 0.17 0.13 0.08 0.07 0.07 0.11 0.13 0.31 0.53 0.39 0.28 0.21 0.16 0.16 0.16 0.14 0.13 0.07 0.06 0.06 0.04 0.05 0.11 0.09 0.12 0.18 0.17 0.14 0.15 0.14 0.10 0.10 0.10 0.10 0.11 0.12 0.11 0.08 0.12 0.14 0.16 0.22 0.25 0.22 0.27 0.32
0.03 0.04 0.03 0.04 0.11 0.16 0.12 0.10 0.11 0.09 0.05 0.03 0.03 0.05 0.15 0.23 0.25 0.19 0.16 0.21 0.15 0.14 0.11 0.07 0.07 0.09 0.08 0.08 0.12 0.12 0.15 0.16 0.15 0.16 0.16 0.15 0.14 0.12 0.11 0.08 0.08 0.09 0.10 0.12 0.11 0.11 0.13 0.16 0.22 0.25 0.25 0.23 0.23 0.21
0.03 0.04 0.04 0.06 0.14 0.13 0.19 0.23 0.15 0.12 0.09 0.06 0.08 0.06 0.12 0.11 0.14 0.21 0.17 0.19 0.17 0.10 0.12 0.13 0.12 0.16 0.18 0.18 0.19 0.19 0.17 0.16 0.14 0.13 0.14 0.14 0.13 0.11 0.08 0.07 0.08 0.09 0.09 0.09 0.09 0.11 0.12 0.13 0.16 0.14 0.15 0.12 0.12 0.12
0.03 0.04 0.05 0.05 0.08 0.09 0.09 0.13 0.07 0.06 0.07 0.08 0.13 0.13 0.13 0.15 0.27 0.32 0.21 0.20 0.25 0.20 0.21 0.21 0.22 0.24 0.25 0.21 0.19 0.17 0.14 0.13 0.12 0.11 0.10 0.09 0.06 0.05 0.05 0.06 0.07 0.09 0.09 0.09 0.09 0.11 0.09 0.08 0.09 0.10 0.11 0.11 0.10 0.09

GFSWCAN_prec_precacc_105.txt.gz
Total_Precipitation_Accumulation
1.25 0.95 0.74 0.79 0.90 0.65 0.55 0.52 0.63 0.63 0.67 0.68 0.62 0.81 0.79 0.84 1.32 2.43 2.35 1.54 1.59 1.35 0.38 0.29 0.15 0.08 0.05 0.10 0.31 0.37 0.53 0.53 0.66 0.76 0.51 0.25 0.10 0.10 0.19 0.40 0.46 0.34 0.50 0.44 0.44 0.40 0.13 0.07 0.16 0.33 0.27 0.10 0.06 0.03
1.34 1.06 0.71 0.67 0.78 0.62 0.52 0.49 0.55 0.54 0.55 0.67 0.59 0.69 0.67 0.69 1.06 2.05 3.04 2.22 1.42 1.87 0.90 0.32 0.24 0.09 0.04 0.03 0.18 0.47 0.48 0.51 0.41 0.47 0.39 0.30 0.25 0.19 0.15 0.26 0.65 0.46 0.24 0.27 0.27 0.22 0.10 0.04 0.10 0.16 0.11 0.11 0.05 0.06
1.22 0.96 0.84 0.75 0.66 0.59 0.49 0.50 0.59 0.51 0.50 0.62 0.63 0.63 0.64 0.66 0.99 1.57 2.66 2.02 2.59 2.83 2.13 0.51 0.34 0.20 0.10 0.03 0.12 0.42 0.31 0.60 0.82 0.62 0.67 0.54 0.55 0.36 0.26 0.28 0.56 0.48 0.20 0.21 0.17 0.04 0.05 0.08 0.06 0.04 0.03 0.06 0.08 0.14
1.14 0.96 0.90 0.90 0.69 0.54 0.40 0.46 0.61 0.53 0.51 0.53 0.64 0.63 0.70 0.82 0.98 1.30 2.03 2.22 3.01 3.24 2.36 0.84 0.19 0.23 0.20 0.09 0.10 0.15 0.15 0.31 0.52 0.69 0.82 0.71 0.42 0.23 0.31 0.20 0.27 0.54 0.53 0.15 0.16 0.14 0.09 0.08 0.06 0.12 0.19 0.26 0.25 0.19
1.10 1.09 1.05 0.89 0.71 0.55 0.52 0.60 0.71 0.64 0.61 0.55 0.73 0.77 0.99 1.23 1.10 1.26 1.55 1.79 2.48 1.99 1.53 0.94 0.50 0.16 0.33 0.27 0.26 0.18 0.23 0.35 0.61 0.86 0.72 0.48 0.17 0.22 0.16 0.17 0.47 0.35 0.56 0.46 0.47 0.32 0.30 0.21 0.31 0.43 0.34 0.21 0.21 0.16
1.12 0.89 0.85 0.81 0.69 0.70 0.69 0.79 0.81 0.77 0.66 0.66 0.86 1.14 1.31 1.39 1.75 2.49 3.43 2.43 1.79 1.65 2.43 1.58 0.81 0.32 0.46 0.52 0.48 0.63 0.32 0.52 0.69 0.82 0.57 0.38 0.26 0.37 0.38 0.19 0.16 0.10 0.15 0.42 0.72 0.51 0.58 0.37 0.35 0.16 0.13 0.10 0.05 0.02
0.87 0.74 0.77 0.78 0.66 0.78 0.89 0.87 0.83 0.70 0.82 0.97 1.16 1.22 1.16 1.87 2.55 2.98 2.03 1.35 1.12 1.90 3.17 1.94 0.91 0.44 0.59 0.67 0.53 0.90 0.81 0.96 0.86 0.91 0.71 0.30 0.22 0.60 0.54 0.18 0.03 0.14 0.12 0.22 0.68 0.60 0.78 0.49 0.29 0.15 0.04 0.01 0.01 0.03
0.89 0.75 0.66 0.68 0.61 0.64 0.86 1.03 0.97 0.98 1.13 1.16 1.15 1.25 1.76 2.99 3.20 2.09 0.98 1.21 1.19 2.04 2.34 2.02 1.12 0.94 0.92 1.13 0.70 0.61 0.89 1.34 1.26 1.04 0.62 0.47 0.36 0.52 0.53 0.07 0.01 0.03 0.03 0.11 0.14 0.10 0.21 0.21 0.04 0.02 0.01 0.02 0.05 0.09
0.67 0.63 0.68 0.66 0.60 0.56 0.57 0.80 1.09 1.30 1.51 1.81 2.05 2.47 3.83 4.88 3.69 1.63 1.40 2.21 1.84 2.18 1.97 1.13 0.88 1.20 1.27 1.35 1.09 0.79 0.81 1.42 1.16 0.88 0.61 0.54 0.57 0.49 0.21 0.12 0.11 0.03 0.01 0.01 0.00 0.01 0.02 0.04 0.04 0.03 0.04 0.08 0.16 0.15
0.78 0.70 0.78 0.80 0.68 0.61 0.62 0.80 1.30 1.88 2.79 3.44 4.15 5.12 5.54 3.53 1.87 2.03 3.55 3.59 2.91 2.13 1.38 0.71 0.62 1.04 1.38 1.16 1.33 1.39 1.19 1.01 0.92 0.48 0.49 0.52 0.40 0.34 0.26 0.23 0.14 0.07 0.03 0.02 0.02 0.02 0.02 0.03 0.05 0.08 0.13 0.14 0.09 0.05
0.84 0.83 0.83 0.80 0.80 0.87 1.03 1.16 1.64 2.91 4.43 4.54 4.42 3.71 3.04 2.34 2.19 2.62 3.24 2.45 1.75 0.88 0.45 0.40 0.49 0.84 1.06 1.15 1.17 1.32 1.37 0.96 0.76 0.44 0.43 0.47 0.31 0.22 0.19 0.17 0.15 0.17 0.14 0.09 0.06 0.06 0.08 0.15 0.25 0.20 0.09 0.05 0.04 0.06
0.80 0.71 0.63 0.65 0.66 0.71 0.84 1.25 1.93 2.22 2.51 2.43 2.32 2.26 2.64 2.88 2.67 2.34 1.88 1.22 0.52 0.20 0.13 0.17 0.53 0.91 1.01 1.26 1.51 1.66 1.23 0.99 0.63 0.44 0.59 0.53 0.44 0.22 0.10 0.15 0.14 0.11 0.09 0.10 0.15 0.22 0.25 0.22 0.17 0.18 0.21 0.25 0.33 0.39
0.72 0.54 0.44 0.50 0.56 0.82 1.21 1.32 0.94 0.97 1.28 1.37 1.53 2.32 2.67 2.64 2.19 1.55 0.79 0.41 0.26 0.18 0.09 0.16 0.52 0.84 1.03 1.19 1.54 1.64 1.27 1.03 0.60 1.20 0.91 0.42 0.22 0.26 0.20 0.18 0.19 0.11 0.14 0.22 0.16 0.12 0.12 0.16 0.21 0.26 0.34 0.43 0.39 0.40
0.72 0.71 0.66 0.64 0.65 0.91 1.22 1.04 1.15 1.10 0.92 1.09 1.59 1.92 1.72 1.35 1.03 0.68 0.33 0.16 0.12 0.10 0.11 0.15 0.24 0.38 0.74 1.02 1.04 1.25 1.11 0.89 0.90 0.67 0.55 0.55 0.57 0.41 0.22 0.17 0.25 0.31 0.28 0.34 0.48 0.36 0.32 0.30 0.35 0.41 0.41 0.39 0.28 0.35
0.69 0.68 0.72 0.94 1.04 1.04 1.04 1.10 0.97 0.66 0.52 0.78 0.79 0.86 0.78 0.74 0.55 0.38 0.27 0.20 0.19 0.21 0.32 0.50 0.60 0.49 0.62 1.09 0.89 1.01 1.04 0.95 0.64 0.52 0.55 0.52 0.39 0.29 0.36 0.40 0.38 0.50 0.57 0.60 0.74 0.84 0.78 0.62 0.45 0.59 0.61 0.51 0.36 0.41
0.54 0.77 1.09 1.00 0.80 0.82 0.91 0.64 0.64 0.47 0.44 0.34 0.49 0.50 0.51 0.46 0.48 0.43 0.41 0.43 0.42 0.49 0.61 0.83 0.78 0.80 0.93 0.74 0.66 0.68 0.68 0.64 0.64 0.48 0.37 0.30 0.34 0.40 0.51 0.58 0.60 0.64 0.62 0.67 0.74 0.74 0.86 0.89 0.81 0.80 0.83 0.76 0.74 0.63
0.64 0.91 0.84 0.70 0.72 0.67 0.46 0.50 0.42 0.36 0.43 0.34 0.51 0.48 0.47 0.42 0.47 0.48 0.49 0.56 0.53 0.63 0.69 0.70 0.59 0.54 0.68 0.36 0.37 0.41 0.60 0.59 0.53 0.49 0.45 0.47 0.53 0.61 0.64 0.59 0.57 0.56 0.62 0.65 0.68 0.64 0.63 0.64 0.57 0.51 0.67 0.83 0.72 0.70
0.68 0.40 0.36 0.37 0.32 0.36 0.40 0.38 0.32 0.32 0.39 0.51 0.51 0.81 0.52 0.52 0.49 0.47 0.55 0.64 0.59 0.34 0.23 0.31 0.22 0.15 0.26 0.31 0.48 0.70 0.63 0.63 0.54 0.61 0.70 0.78 0.75 0.78 0.68 0.51 0.58 0.52 0.54 0.60 0.52 0.54 0.49 0.44 0.39 0.46 0.44 0.49 0.45 0.51
0.62 0.35 0.32 0.27 0.23 0.34 0.54 0.44 0.19 0.23 0.49 0.61 0.71 0.71 0.57 0.70 0.81 0.83 0.78 0.75 0.46 0.21 0.20 0.29 0.32 0.31 0.43 0.53 0.68 0.78 0.75 0.70 0.75 0.84 0.94 1.03 0.96 0.80 0.74 0.62 0.56 0.56 0.53 0.55 0.45 0.42 0.48 0.46 0.41 0.38 0.36 0.37 0.34 0.44
1.07 0.97 0.65 0.57 0.37 0.41 0.31 0.29 0.13 0.16 0.43 0.50 0.61 0.51 0.47 0.75 0.70 0.58 0.47 0.41 0.33 0.29 0.39 0.42 0.59 0.69 0.79 0.87 0.95 1.06 0.92 0.79 0.64 0.62 0.81 0.99 1.13 0.86 0.85 0.65 0.65 0.59 0.46 0.46 0.47 0.42 0.36 0.36 0.40 0.37 0.37 0.43 0.40 0.39
1.00 1.31 0.99 0.59 0.60 0.37 0.30 0.33 0.29 0.27 0.38 0.46 0.54 0.30 0.48 0.31 0.22 0.22 0.21 0.14 0.16 0.40 0.57 0.77 0.82 0.83 0.91 1.03 0.99 0.81 0.76 0.60 0.63 0.49 0.56 0.72 0.94 0.67 0.72 0.74 0.58 0.51 0.44 0.47 0.39 0.46 0.40 0.37 0.41 0.35 0.31 0.33 0.33 0.31
0.53 0.62 0.71 0.47 0.34 0.20 0.34 0.39 0.27 0.31 0.25 0.45 0.41 0.24 0.30 0.28 0.20 0.16 0.08 0.13 0.44 0.82 0.85 0.83 0.81 0.76 0.67 0.77 0.87 0.79 0.89 0.61 0.59 0.59 0.64 0.58 0.61 0.61 0.65 0.69 0.52 0.48 0.45 0.46 0.39 0.37 0.35 0.30 0.25 0.21 0.18 0.18 0.17 0.21
0.33 0.45 0.57 0.45 0.24 0.09 0.27 0.26 0.23 0.44 0.38 0.40 0.28 0.22 0.27 0.26 0.23 0.08 0.18 0.36 0.69 0.96 0.88 0.72 0.71 0.65 0.63 0.76 0.57 0.61 0.81 0.58 0.62 0.76 0.78 0.73 0.71 0.69 0.57 0.55 0.52 0.43 0.37 0.41 0.34 0.28 0.23 0.21 0.18 0.15 0.14 0.15 0.14 0.12
0.34 0.42 0.46 0.40 0.21 0.14 0.08 0.08 0.10 0.17 0.15 0.15 0.13 0.21 0.23 0.15 0.06 0.05 0.23 0.47 0.74 0.60 0.52 0.63 0.63 0.63 0.52 0.43 0.47 0.58 0.82 0.61 0.52 0.58 0.71 0.54 0.43 0.51 0.43 0.38 0.32 0.31 0.29 0.24 0.17 0.17 0.17 0.17 0.15 0.16 0.19 0.18 0.12 0.12
0.61 0.43 0.29 0.23 0.08 0.04 0.05 0.05 0.06 0.06 0.10 0.09 0.11 0.16 0.14 0.06 0.05 0.08 0.17 0.43 0.35 0.35 0.41 0.46 0.38 0.40 0.43 0.51 0.55 0.53 0.53 0.47 0.38 0.33 0.50 0.44 0.42 0.36 0.30 0.25 0.23 0.23 0.16 0.14 0.20 0.21 0.20 0.19 0.19 0.15 0.10 0.08 0.10 0.11
0.37 0.23 0.16 0.13 0.07 0.05 0.05 0.05 0.06 0.07 0.06 0.11 0.13 0.11 0.06 0.06 0.06 0.15 0.26 0.39 0.33 0.38 0.41 0.43 0.41 0.31 0.33 0.35 0.34 0.32 0.34 0.34 0.25 0.21 0.33 0.28 0.28 0.28 0.25 0.21 0.17 0.18 0.16 0.16 0.22 0.21 0.14 0.09 0.08 0.08 0.09 0.10 0.13 0.17
0.19 0.11 0.05 0.06 0.11 0.12 0.11 0.07 0.07 0.10 0.13 0.17 0.13 0.11 0.14 0.13 0.14 0.26 0.29 0.29 0.30 0.40 0.36 0.32 0.24 0.23 0.26 0.25 0.21 0.19 0.14 0.11 0.10 0.13 0.16 0.14 0.14 0.15 0.24 0.31 0.31 0.32 0.19 0.18 0.19 0.20 0.20 0.18 0.14 0.13 0.15 0.12 0.12 0.22
0.07 0.03 0.05 0.08 0.13 0.15 0.15 0.13 0.16 0.20 0.21 0.22 0.19 0.17 0.21 0.18 0.29 0.38 0.34 0.38 0.30 0.24 0.19 0.17 0.14 0.11 0.12 0.12 0.10 0.08 0.05 0.04 0.05 0.04 0.05 0.08 0.10 0.14 0.15 0.15 0.16 0.13 0.12 0.14 0.16 0.17 0.21 0.23 0.20 0.18 0.18 0.20 0.19 0.19
0.11 0.11 0.11 0.14 0.13 0.14 0.21 0.22 0.25 0.25 0.25 0.25 0.18 0.18 0.21 0.32 0.45 0.36 0.36 0.28 0.24 0.17 0.14 0.15 0.18 0.10 0.07 0.04 0.03 0.05 0.08 0.08 0.08 0.06 0.05 0.07 0.14 0.15 0.11 0.11 0.12 0.12 0.11 0.09 0.10 0.16 0.20 0.23 0.21 0.19 0.24 0.27 0.21 0.24
0.07 0.08 0.08 0.04 0.09 0.16 0.23 0.15 0.18 0.13 0.08 0.07 0.07 0.12 0.13 0.33 0.55 0.40 0.28 0.22 0.16 0.16 0.16 0.14 0.13 0.07 0.06 0.06 0.04 0.05 0.11 0.09 0.12 0.18 0.17 0.14 0.15 0.14 0.10 0.10 0.10 0.10 0.11 0.12 0.11 0.08 0.12 0.15 0.16 0.22 0.25 0.22 0.27 0.32
0.03 0.04 0.03 0.04 0.12 0.16 0.13 0.10 0.11 0.09 0.05 0.03 0.03 0.05 0.16 0.24 0.27 0.20 0.16 0.21 0.15 0.14 0.11 0.07 0.07 0.09 0.08 0.08 0.12 0.12 0.15 0.16 0.15 0.16 0.16 0.15 0.14 0.12 0.11 0.08 0.08 0.09 0.10 0.12 0.11 0.11 0.13 0.16 0.22 0.25 0.25 0.23 0.23 0.21
0.03 0.04 0.04 0.06 0.14 0.13 0.19 0.23 0.15 0.12 0.09 0.06 0.08 0.06 0.12 0.11 0.14 0.21 0.18 0.19 0.17 0.10 0.12 0.13 0.12 0.16 0.18 0.18 0.19 0.19 0.17 0.16 0.14 0.13 0.14 0.14 0.13 0.11 0.08 0.07 0.08 0.09 0.09 0.09 0.09 0.11 0.12 0.13 0.16 0.15 0.15 0.12 0.12 0.12
0.03 0.04 0.05 0.05 0.08 0.09 0.09 0.13 0.07 0.06 0.07 0.08 0.13 0.13 0.14 0.15 0.27 0.32 0.21 0.20 0.25 0.20 0.21 0.21 0.22 0.24 0.25 0.21 0.19 0.17 0.14 0.13 0.12 0.11 0.10 0.09 0.06 0.05 0.05 0.06 0.07 0.09 0.09 0.09 0.09 0.11 0.09 0.08 0.09 0.10 0.11 0.11 0.10 0.09

GFSWCAN_prec_precacc_111.txt.gz
Total_Precipitation_Accumulation
1.32 1.02 0.80 0.85 0.97 0.71 0.57 0.53 0.64 0.65 0.69 0.68 0.62 0.82 0.82 0.89 1.39 2.43 2.35 1.54 1.62 1.38 0.39 0.29 0.15 0.08 0.05 0.10 0.31 0.37 0.53 0.53 0.66 0.76 0.55 0.34 0.13 0.11 0.21 0.41 0.48 0.43 0.53 0.45 0.44 0.40 0.13 0.07 0.16 0.33 0.28 0.19 0.10 0.04
1.42 1.15 0.79 0.74 0.83 0.70 0.59 0.52 0.57 0.55 0.57 0.70 0.61 0.70 0.70 0.74 1.13 2.07 3.04 2.22 1.43 1.92 0.90 0.32 0.24 0.09 0.04 0.03 0.18 0.47 0.48 0.51 0.41 0.47 0.40 0.30 0.26 0.26 0.19 0.31 0.67 0.52 0.37 0.38 0.27 0.22 0.10 0.04 0.10 0.17 0.12 0.16 0.11 0.07
1.29 1.04 0.94 0.83 0.71 0.64 0.58 0.57 0.61 0.51 0.51 0.63 0.65 0.66 0.67 0.70 1.06 1.60 2.66 2.03 2.67 2.95 2.16 0.51 0.34 0.20 0.10 0.03 0.12 0.42 0.31 0.60 0.82 0.62 0.68 0.54 0.56 0.37 0.32 0.32 0.65 0.60 0.42 0.43 0.20 0.05 0.05 0.08 0.07 0.06 0.07 0.08 0.12 0.15
1.21 1.07 0.98 1.02 0.75 0.58 0.44 0.57 0.66 0.54 0.51 0.54 0.66 0.65 0.73 0.87 1.05 1.35 2.03 2.22 3.06 3.36 2.43 0.84 0.19 0.23 0.20 0.09 0.10 0.15 0.15 0.31 0.52 0.70 0.83 0.73 0.43 0.24 0.31 0.24 0.37 0.81 0.85 0.52 0.31 0.19 0.15 0.08 0.08 0.16 0.22 0.32 0.26 0.19
1.18 1.15 1.15 1.00 0.78 0.59 0.57 0.64 0.74 0.66 0.62 0.55 0.75 0.79 1.02 1.27 1.15 1.30 1.56 1.79 2.48 2.03 1.55 0.94 0.50 0.16 0.33 0.27 0.26 0.18 0.23 0.35 0.61 0.86 0.73 0.50 0.17 0.23 0.17 0.23 0.61 0.59 1.02 0.87 0.82 0.41 0.47 0.25 0.33 0.49 0.39 0.26 0.30 0.21
1.24 0.98 0.90 0.92 0.74 0.73 0.74 0.87 0.86 0.79 0.66 0.66 0.86 1.16 1.34 1.43 1.82 2.53 3.47 2.43 1.79 1.66 2.52 1.59 0.81 0.32 0.46 0.52 0.48 0.63 0.32 0.52 0.70 0.84 0.58 0.40 0.27 0.41 0.40 0.20 0.18 0.21 0.68 1.01 1.12 0.74 0.68 0.50 0.45 0.19 0.20 0.18 0.10 0.19
1.00 0.84 0.86 0.83 0.72 0.80 0.93 0.92 0.90 0.72 0.83 0.98 1.16 1.23 1.19 1.94 2.63 3.00 2.05 1.39 1.14 1.92 3.29 1.98 0.91 0.44 0.59 0.67 0.53 0.90 0.81 0.96 0.86 0.92 0.71 0.31 0.22 0.62 0.55 0.19 0.03 0.19 0.27 0.55 1.13 1.31 1.43 1.07 1.09 0.77 0.32 0.16 0.14 0.05
1.02 0.86 0.80 0.71 0.63 0.66 0.89 1.06 1.01 1.03 1.14 1.16 1.15 1.26 1.82 3.09 3.31 2.12 0.99 1.45 1.66 2.22 2.46 2.07 1.12 0.94 0.93 1.15 0.71 0.61 0.89 1.35 1.29 1.07 0.62 0.47 0.36 0.52 0.54 0.07 0.01 0.03 0.04 0.17 0.22 0.23 0.60 0.62 0.44 0.39 0.17 0.05 0.05 0.09
0.79 0.71 0.78 0.69 0.61 0.58 0.60 0.83 1.11 1.35 1.52 1.82 2.08 2.55 4.04 5.16 3.88 1.65 1.40 2.25 2.17 2.64 2.16 1.16 0.89 1.20 1.27 1.36 1.11 0.82 0.83 1.45 1.17 0.91 0.61 0.54 0.58 0.50 0.23 0.13 0.11 0.04 0.02 0.01 0.01 0.02 0.04 0.05 0.05 0.05 0.07 0.09 0.16 0.15
0.88 0.75 0.82 0.82 0.69 0.63 0.64 0.84 1.33 1.89 2.82 3.55 4.44 5.55 5.88 3.60 1.88 2.06 3.65 3.79 3.21 2.44 1.55 0.76 0.62 1.04 1.38 1.16 1.36 1.46 1.32 1.05 0.94 0.49 0.50 0.55 0.43 0.37 0.27 0.24 0.15 0.07 0.03 0.02 0.02 0.03 0.03 0.03 0.05 0.08 0.13 0.14 0.10 0.06
0.88 0.84 0.84 0.81 0.81 0.89 1.06 1.19 1.67 3.00 4.71 4.99 4.77 3.89 3.06 2.37 2.27 2.75 3.43 2.60 1.84 0.96 0.48 0.41 0.49 0.84 1.06 1.16 1.24 1.45 1.63 1.02 0.77 0.44 0.44 0.49 0.34 0.25 0.22 0.19 0.16 0.18 0.14 0.09 0.06 0.06 0.08 0.16 0.25 0.20 0.10 0.06 0.05 0.07
0.83 0.71 0.63 0.66 0.68 0.72 0.85 1.29 2.06 2.58 2.84 2.57 2.41 2.38 2.84 3.03 2.77 2.47 2.03 1.34 0.53 0.20 0.13 0.17 0.53 0.91 1.01 1.27 1.61 1.84 1.34 1.04 0.64 0.46 0.62 0.55 0.47 0.25 0.12 0.16 0.15 0.11 0.09 0.10 0.15 0.22 0.25 0.22 0.17 0.19 0.22 0.26 0.34 0.40
0.73 0.55 0.45 0.51 0.58 0.84 1.24 1.42 1.19 1.14 1.33 1.58 1.85 2.57 2.79 2.69 2.31 1.58 0.83 0.45 0.26 0.18 0.09 0.16 0.52 0.84 1.04 1.21 1.65 1.97 1.59 1.10 0.70 1.31 0.95 0.45 0.25 0.28 0.22 0.19 0.19 0.11 0.14 0.22 0.16 0.12 0.12 0.16 0.21 0.26 0.35 0.43 0.39 0.41
0.73 0.72 0.68 0.67 0.71 0.98 1.30 1.25 1.37 1.32 1.18 1.41 1.78 2.02 1.74 1.36 1.04 0.68 0.33 0.16 0.12 0.10 0.11 0.15 0.24 0.40 0.75 1.05 1.09 1.30 1.26 1.09 1.13 0.73 0.57 0.58 0.60 0.43 0.24 0.19 0.25 0.31 0.28 0.34 0.48 0.36 0.32 0.30 0.35 0.41 0.41 0.39 0.28 0.36
0.70 0.70 0.78 1.00 1.16 1.15 1.17 1.32 1.25 1.00 0.88 0.99 0.81 0.86 0.78 0.74 0.55 0.39 0.27 0.20 0.19 0.21 0.33 0.53 0.63 0.52 0.68 1.15 0.92 1.02 1.05 0.96 0.65 0.54 0.57 0.54 0.40 0.29 0.36 0.40 0.38 0.50 0.57 0.60 0.74 0.84 0.78 0.62 0.45 0.60 0.61 0.52 0.36 0.41
0.58 0.91 1.21 1.11 0.93 0.98 1.22 1.10 1.02 0.70 0.57 0.37 0.50 0.51 0.52 0.47 0.48 0.44 0.41 0.44 0.42 0.49 0.65 0.96 0.90 0.82 0.98 0.76 0.66 0.68 0.69 0.65 0.65 0.49 0.38 0.31 0.35 0.41 0.51 0.58 0.61 0.64 0.62 0.67 0.74 0.74 0.86 0.89 0.82 0.80 0.83 0.76 0.75 0.63
0.86 1.14 0.91 0.87 1.04 1.11 0.84 0.70 0.52 0.46 0.45 0.34 0.52 0.49 0.47 0.42 0.48 0.49 0.50 0.57 0.55 0.67 0.76 0.79 0.81 0.63 0.69 0.37 0.37 0.42 0.61 0.60 0.54 0.49 0.45 0.47 0.54 0.61 0.65 0.59 0.57 0.56 0.62 0.65 0.68 0.64 0.63 0.64 0.57 0.51 0.67 0.83 0.73 0.70
0.84 0.47 0.54 0.66 0.67 0.57 0.49 0.42 0.37 0.35 0.40 0.52 0.52 0.82 0.52 0.53 0.51 0.48 0.56 0.67 0.63 0.38 0.26 0.33 0.22 0.15 0.26 0.31 0.48 0.71 0.65 0.65 0.55 0.61 0.70 0.78 0.75 0.78 0.68 0.51 0.59 0.53 0.54 0.60 0.52 0.54 0.49 0.44 0.39 0.46 0.44 0.50 0.45 0.51
0.69 0.41 0.37 0.30 0.24 0.35 0.61 0.46 0.19 0.23 0.50 0.62 0.72 0.71 0.57 0.71 0.83 0.84 0.79 0.77 0.48 0.23 0.23 0.31 0.35 0.32 0.43 0.53 0.68 0.79 0.77 0.71 0.76 0.84 0.95 1.04 0.97 0.80 0.74 0.62 0.57 0.56 0.53 0.56 0.45 0.42 0.49 0.46 0.41 0.38 0.36 0.37 0.34 0.44
1.15 1.04 0.67 0.58 0.38 0.41 0.31 0.29 0.13 0.16 0.44 0.50 0.61 0.51 0.47 0.75 0.70 0.58 0.47 0.42 0.34 0.30 0.41 0.44 0.61 0.70 0.80 0.89 0.98 1.08 0.94 0.81 0.66 0.64 0.83 1.01 1.14 0.86 0.85 0.65 0.65 0.60 0.46 0.47 0.47 0.42 0.36 0.36 0.41 0.37 0.37 0.43 0.40 0.39
1.04 1.33 0.99 0.59 0.60 0.37 0.30 0.33 0.29 0.27 0.38 0.46 0.54 0.30 0.48 0.31 0.22 0.22 0.21 0.14 0.16 0.41 0.58 0.78 0.84 0.86 0.94 1.06 1.02 0.83 0.77 0.61 0.65 0.50 0.58 0.73 0.95 0.68 0.73 0.74 0.58 0.51 0.44 0.47 0.39 0.46 0.40 0.37 0.41 0.36 0.32 0.33 0.33 0.32
0.54 0.63 0.71 0.47 0.34 0.20 0.34 0.39 0.27 0.31 0.25 0.45 0.41 0.24 0.30 0.29 0.20 0.16 0.08 0.13 0.45 0.84 0.86 0.84 0.83 0.78 0.69 0.79 0.90 0.81 0.91 0.62 0.60 0.60 0.66 0.60 0.62 0.62 0.66 0.70 0.52 0.48 0.46 0.46 0.39 0.37 0.36 0.30 0.26 0.22 0.19 0.18 0.18 0.21
0.33 0.45 0.57 0.45 0.24 0.09 0.27 0.28 0.23 0.44 0.38 0.41 0.28 0.22 0.27 0.26 0.23 0.08 0.18 0.36 0.70 1.00 0.90 0.73 0.73 0.68 0.66 0.80 0.60 0.63 0.84 0.60 0.63 0.77 0.78 0.74 0.72 0.70 0.59 0.56 0.53 0.44 0.38 0.42 0.35 0.29 0.24 0.22 0.18 0.16 0.14 0.16 0.15 0.13
0.34 0.42 0.46 0.40 0.21 0.15 0.09 0.09 0.10 0.17 0.15 0.15 0.13 0.21 0.24 0.15 0.06 0.05 0.23 0.48 0.76 0.64 0.55 0.65 0.65 0.64 0.53 0.44 0.47 0.58 0.83 0.61 0.52 0.58 0.71 0.54 0.43 0.52 0.44 0.39 0.34 0.33 0.30 0.25 0.18 0.18 0.19 0.18 0.16 0.17 0.19 0.18 0.12 0.13
0.61 0.43 0.29 0.23 0.08 0.04 0.05 0.05 0.06 0.06 0.10 0.09 0.11 0.17 0.14 0.06 0.05 0.08 0.17 0.43 0.36 0.36 0.42 0.46 0.38 0.40 0.43 0.51 0.55 0.54 0.53 0.47 0.38 0.34 0.51 0.44 0.43 0.36 0.30 0.26 0.24 0.25 0.18 0.15 0.21 0.23 0.21 0.20 0.19 0.16 0.10 0.08 0.10 0.11
0.37 0.23 0.16 0.13 0.07 0.05 0.05 0.05 0.06 0.07 0.06 0.11 0.13 0.11 0.06 0.06 0.06 0.15 0.26 0.39 0.33 0.38 0.41 0.43 0.41 0.31 0.33 0.35 0.34 0.32 0.34 0.34 0.25 0.21 0.34 0.28 0.28 0.28 0.25 0.21 0.18 0.18 0.16 0.17 0.23 0.22 0.16 0.10 0.09 0.09 0.09 0.11 0.14 0.17
0.19 0.11 0.05 0.06 0.11 0.12 0.11 0.07 0.07 0.10 0.13 0.17 0.13 0.11 0.14 0.13 0.14 0.27 0.29 0.29 0.30 0.41 0.36 0.32 0.24 0.23 0.26 0.25 0.21 0.20 0.15 0.11 0.10 0.13 0.16 0.15 0.15 0.16 0.24 0.31 0.32 0.33 0.20 0.19 0.20 0.21 0.21 0.18 0.16 0.14 0.16 0.13 0.13 0.22
0.07 0.03 0.05 0.08 0.13 0.15 0.15 0.13 0.16 0.20 0.21 0.22 0.19 0.17 0.21 0.18 0.29 0.39 0.34 0.38 0.30 0.24 0.19 0.17 0.14 0.11 0.12 0.12 0.10 0.08 0.06 0.04 0.05 0.04 0.05 0.08 0.11 0.14 0.15 0.16 0.16 0.13 0.12 0.14 0.16 0.17 0.21 0.23 0.21 0.19 0.19 0.20 0.20 0.19
0.11 0.11 0.11 0.14 0.13 0.14 0.21 0.22 0.25 0.26 0.26 0.25 0.18 0.19 0.21 0.32 0.46 0.37 0.36 0.28 0.24 0.17 0.14 0.15 0.18 0.10 0.07 0.04 0.03 0.06 0.08 0.08 0.08 0.06 0.05 0.07 0.14 0.15 0.11 0.11 0.12 0.12 0.11 0.09 0.11 0.17 0.20 0.23 0.21 0.19 0.24 0.27 0.21 0.24
0.07 0.08 0.08 0.04 0.09 0.16 0.24 0.16 0.18 0.14 0.08 0.07 0.07 0.12 0.14 0.35 0.57 0.41 0.28 0.22 0.16 0.16 0.16 0.14 0.13 0.07 0.06 0.06 0.04 0.05 0.12 0.10 0.12 0.18 0.18 0.14 0.15 0.14 0.10 0.10 0.10 0.10 0.11 0.12 0.11 0.09 0.13 0.15 0.16 0.23 0.25 0.22 0.27 0.32
0.03 0.04 0.03 0.04 0.12 0.17 0.14 0.10 0.11 0.09 0.05 0.03 0.03 0.06 0.16 0.26 0.28 0.21 0.17 0.21 0.15 0.14 0.11 0.07 0.08 0.09 0.08 0.08 0.12 0.12 0.15 0.16 0.15 0.16 0.16 0.16 0.14 0.13 0.11 0.08 0.08 0.09 0.10 0.12 0.11 0.11 0.13 0.16 0.22 0.25 0.25 0.23 0.23 0.21
0.03 0.04 0.04 0.06 0.15 0.13 0.20 0.23 0.15 0.12 0.09 0.06 0.08 0.06 0.12 0.11 0.14 0.22 0.19 0.20 0.17 0.10 0.12 0.13 0.12 0.16 0.18 0.18 0.19 0.19 0.17 0.16 0.14 0.13 0.14 0.14 0.13 0.11 0.08 0.07 0.08 0.09 0.09 0.09 0.09 0.11 0.12 0.14 0.16 0.15 0.15 0.12 0.12 0.12
0.03 0.04 0.05 0.05 0.08 0.09 0.09 0.13 0.07 0.06 0.07 0.08 0.13 0.13 0.14 0.15 0.27 0.32 0.22 0.21 0.25 0.20 0.21 0.21 0.22 0.24 0.25 0.21 0.19 0.17 0.14 0.13 0.12 0.11 0.10 0.09 0.06 0.05 0.05 0.06 0.07 0.09 0.09 0.09 0.09 0.11 0.09 0.08 0.09 0.11 0.12 0.11 0.11 0.10

GFSWCAN_prec_precacc_114.txt.gz
Total_Precipitation_Accumulation
1.32 1.02 0.80 0.87 1.05 0.81 0.64 0.59 0.65 0.66 0.70 0.69 0.62 0.83 0.82 0.92 1.42 2.44 2.35 1.55 1.64 1.40 0.39 0.29 0.15 0.08 0.05 0.10 0.32 0.37 0.53 0.53 0.66 0.77 0.57 0.34 0.14 0.12 0.22 0.42 0.49 0.45 0.55 0.46 0.44 0.40 0.13 0.07 0.16 0.34 0.29 0.20 0.18 0.12
1.42 1.15 0.80 0.75 0.86 0.78 0.72 0.61 0.61 0.56 0.59 0.71 0.61 0.71 0.70 0.77 1.16 2.08 3.05 2.22 1.45 1.94 0.91 0.32 0.24 0.09 0.04 0.03 0.18 0.48 0.48 0.51 0.42 0.48 0.41 0.31 0.26 0.27 0.19 0.34 0.68 0.55 0.45 0.44 0.29 0.22 0.10 0.05 0.10 0.17 0.12 0.27 0.21 0.10
1.30 1.05 0.95 0.84 0.73 0.68 0.65 0.66 0.65 0.54 0.52 0.64 0.66 0.66 0.68 0.72 1.08 1.61 2.67 2.03 2.68 2.97 2.16 0.51 0.34 0.20 0.10 0.03 0.12 0.42 0.31 0.60 0.83 0.64 0.71 0.54 0.57 0.38 0.32 0.33 0.67 0.62 0.44 0.51 0.25 0.07 0.08 0.08 0.08 0.06 0.07 0.09 0.23 0.16
1.21 1.07 0.99 1.04 0.79 0.62 0.48 0.64 0.72 0.57 0.53 0.54 0.66 0.66 0.73 0.88 1.08 1.37 2.04 2.23 3.06 3.37 2.44 0.84 0.19 0.23 0.20 0.09 0.10 0.15 0.15 0.32 0.54 0.70 0.84 0.74 0.44 0.24 0.31 0.25 0.44 0.92 0.98 0.69 0.43 0.21 0.23 0.10 0.09 0.16 0.22 0.33 0.29 0.19
1.18 1.15 1.16 1.02 0.85 0.68 0.60 0.69 0.92 0.70 0.63 0.56 0.75 0.80 1.02 1.28 1.19 1.33 1.58 1.80 2.49 2.04 1.56 0.94 0.50 0.16 0.33 0.27 0.26 0.18 0.23 0.35 0.61 0.87 0.74 0.51 0.18 0.23 0.17 0.24 0.66 0.69 1.15 1.04 0.96 0.48 0.59 0.30 0.35 0.51 0.40 0.30 0.40 0.22
1.25 0.99 0.90 0.93 0.84 0.84 0.80 0.89 0.96 0.88 0.67 0.66 0.87 1.16 1.34 1.45 1.86 2.57 3.51 2.44 1.79 1.67 2.54 1.60 0.81 0.32 0.46 0.52 0.48 0.63 0.32 0.52 0.70 0.85 0.58 0.40 0.28 0.43 0.43 0.21 0.19 0.25 0.75 1.18 1.35 0.89 0.87 0.65 0.50 0.22 0.31 0.38 0.36 0.29
1.00 0.84 0.87 0.85 0.80 0.94 1.01 0.94 0.94 0.78 0.85 0.99 1.17 1.23 1.21 1.97 2.63 3.01 2.06 1.39 1.14 1.95 3.31 1.98 0.91 0.44 0.59 0.67 0.53 0.90 0.81 0.97 0.87 0.93 0.72 0.31 0.24 0.64 0.56 0.19 0.03 0.20 0.32 0.66 1.31 1.48 1.58 1.16 1.17 0.83 0.38 0.26 0.26 0.09
1.02 0.87 0.81 0.73 0.73 0.78 0.93 1.09 1.05 1.09 1.16 1.17 1.15 1.27 1.86 3.13 3.34 2.14 0.99 1.55 1.73 2.25 2.48 2.08 1.12 0.95 0.93 1.15 0.71 0.61 0.89 1.36 1.31 1.09 0.64 0.47 0.38 0.54 0.55 0.07 0.01 0.03 0.07 0.19 0.24 0.25 0.65 0.70 0.50 0.45 0.22 0.08 0.06 0.10
0.81 0.73 0.85 0.72 0.70 0.68 0.61 0.86 1.15 1.40 1.54 1.83 2.08 2.57 4.09 5.20 3.91 1.66 1.41 2.30 2.24 2.71 2.22 1.17 0.89 1.21 1.27 1.36 1.11 0.82 0.84 1.46 1.19 0.93 0.62 0.57 0.59 0.51 0.23 0.13 0.11 0.04 0.03 0.02 0.01 0.02 0.04 0.05 0.05 0.07 0.11 0.12 0.16 0.15
0.92 0.81 0.95 0.85 0.77 0.68 0.65 0.85 1.39 1.95 2.84 3.56 4.47 5.57 5.90 3.61 1.88 2.08 3.68 3.83 3.24 2.46 1.57 0.78 0.62 1.04 1.38 1.16 1.38 1.52 1.39 1.08 0.97 0.51 0.51 0.57 0.45 0.38 0.28 0.24 0.16 0.08 0.03 0.02 0.02 0.03 0.03 0.03 0.05 0.08 0.14 0.15 0.11 0.06
0.99 0.98 0.95 0.84 0.84 0.90 1.06 1.21 1.74 3.04 4.74 5.00 4.78 3.89 3.07 2.39 2.33 2.80 3.54 2.66 1.88 0.98 0.49 0.41 0.49 0.84 1.06 1.16 1.25 1.47 1.69 1.12 0.79 0.45 0.45 0.51 0.37 0.27 0.23 0.19 0.16 0.18 0.14 0.09 0.06 0.06 0.08 0.16 0.25 0.20 0.10 0.06 0.05 0.07
0.93 0.86 0.68 0.66 0.69 0.73 0.87 1.31 2.10 2.60 2.84 2.57 2.41 2.43 3.05 3.12 2.86 2.54 2.09 1.37 0.54 0.20 0.13 0.17 0.53 0.91 1.01 1.28 1.65 1.86 1.38 1.07 0.66 0.47 0.63 0.56 0.48 0.25 0.12 0.16 0.15 0.11 0.09 0.10 0.15 0.22 0.25 0.22 0.17 0.19 0.22 0.26 0.34 0.41
0.80 0.60 0.47 0.52 0.59 0.86 1.26 1.44 1.20 1.14 1.33 1.59 1.93 2.73 2.98 2.75 2.37 1.60 0.84 0.46 0.26 0.18 0.09 0.16 0.52 0.84 1.04 1.23 1.70 2.03 1.72 1.14 0.72 1.35 0.97 0.46 0.26 0.29 0.23 0.19 0.20 0.11 0.14 0.22 0.16 0.12 0.12 0.16 0.21 0.26 0.35 0.43 0.40 0.41
0.75 0.73 0.69 0.68 0.72 0.99 1.32 1.26 1.38 1.32 1.19 1.52 1.95 2.12 1.77 1.37 1.04 0.68 0.33 0.16 0.12 0.10 0.11 0.15 0.25 0.40 0.75 1.06 1.11 1.37 1.39 1.25 1.24 0.75 0.60 0.62 0.61 0.43 0.24 0.20 0.27 0.32 0.28 0.34 0.48 0.36 0.32 0.30 0.35 0.41 0.41 0.40 0.29 0.36
0.71 0.71 0.78 1.01 1.17 1.16 1.18 1.34 1.29 1.01 0.96 1.17 0.88 0.86 0.78 0.74 0.55 0.39 0.27 0.20 0.20 0.21 0.33 0.53 0.64 0.53 0.71 1.17 0.97 1.03 1.06 0.98 0.68 0.57 0.63 0.58 0.41 0.30 0.37 0.40 0.38 0.50 0.57 0.60 0.74 0.84 0.78 0.62 0.45 0.60 0.61 0.52 0.36 0.41
0.58 0.92 1.22 1.11 0.93 0.99 1.24 1.17 1.11 0.74 0.62 0.44 0.50 0.51 0.53 0.47 0.49 0.44 0.42 0.44 0.42 0.49 0.65 0.96 0.91 0.84 1.00 0.78 0.67 0.69 0.69 0.65 0.67 0.51 0.39 0.31 0.35 0.41 0.51 0.58 0.61 0.64 0.62 0.67 0.74 0.74 0.86 0.89 0.82 0.80 0.83 0.76 0.75 0.63
0.87 1.14 0.91 0.87 1.05 1.14 0.88 0.78 0.60 0.50 0.47 0.35 0.52 0.49 0.48 0.43 0.48 0.49 0.50 0.57 0.55 0.67 0.77 0.80 0.84 0.72 0.72 0.37 0.37 0.42 0.61 0.60 0.54 0.50 0.45 0.47 0.54 0.62 0.65 0.59 0.57 0.57 0.62 0.65 0.68 0.64 0.63 0.64 0.57 0.51 0.67 0.83 0.73 0.71
0.85 0.48 0.54 0.68 0.75 0.66 0.57 0.47 0.39 0.38 0.42 0.52 0.52 0.83 0.52 0.53 0.51 0.48 0.56 0.67 0.64 0.39 0.26 0.34 0.22 0.16 0.27 0.31 0.48 0.71 0.66 0.67 0.55 0.61 0.70 0.78 0.75 0.78 0.68 0.51 0.59 0.53 0.54 0.60 0.52 0.54 0.49 0.44 0.39 0.46 0.44 0.50 0.45 0.51
0.71 0.42 0.38 0.34 0.27 0.37 0.67 0.48 0.20 0.23 0.51 0.62 0.72 0.72 0.58 0.71 0.84 0.84 0.80 0.78 0.51 0.26 0.24 0.32 0.38 0.34 0.44 0.54 0.69 0.79 0.77 0.72 0.76 0.85 0.95 1.04 0.97 0.80 0.74 0.62 0.57 0.56 0.53 0.56 0.45 0.42 0.49 0.47 0.41 0.38 0.37 0.37 0.35 0.44
1.21 1.07 0.69 0.61 0.39 0.42 0.32 0.30 0.13 0.16 0.44 0.50 0.61 0.52 0.47 0.76 0.70 0.58 0.48 0.43 0.35 0.31 0.42 0.45 0.62 0.71 0.81 0.90 0.99 1.09 0.95 0.82 0.67 0.65 0.83 1.01 1.15 0.86 0.85 0.66 0.65 0.60 0.46 0.47 0.47 0.43 0.36 0.36 0.41 0.37 0.38 0.43 0.40 0.39
1.14 1.40 1.05 0.63 0.62 0.38 0.30 0.33 0.29 0.27 0.38 0.46 0.54 0.30 0.48 0.31 0.22 0.22 0.21 0.14 0.16 0.42 0.59 0.79 0.85 0.87 0.95 1.07 1.03 0.84 0.78 0.62 0.66 0.52 0.59 0.75 0.96 0.69 0.73 0.74 0.58 0.52 0.44 0.47 0.39 0.46 0.41 0.37 0.42 0.36 0.32 0.34 0.34 0.32
0.58 0.67 0.75 0.48 0.34 0.20 0.34 0.39 0.27 0.31 0.25 0.45 0.41 0.24 0.30 0.29 0.20 0.16 0.08 0.13 0.45 0.85 0.87 0.85 0.84 0.79 0.70 0.80 0.91 0.82 0.92 0.63 0.61 0.61 0.67 0.61 0.63 0.62 0.66 0.70 0.52 0.48 0.46 0.47 0.40 0.38 0.36 0.31 0.26 0.22 0.19 0.19 0.18 0.22
0.33 0.46 0.57 0.45 0.24 0.09 0.27 0.29 0.23 0.44 0.38 0.42 0.28 0.22 0.28 0.26 0.23 0.08 0.18 0.36 0.71 1.01 0.91 0.74 0.75 0.70 0.67 0.81 0.61 0.64 0.84 0.60 0.63 0.78 0.79 0.75 0.72 0.71 0.59 0.57 0.53 0.44 0.39 0.42 0.35 0.29 0.25 0.22 0.19 0.16 0.15 0.16 0.16 0.14
0.34 0.42 0.46 0.40 0.21 0.15 0.09 0.09 0.10 0.17 0.15 0.15 0.13 0.21 0.24 0.15 0.06 0.05 0.23 0.48 0.77 0.65 0.56 0.66 0.65 0.64 0.53 0.44 0.47 0.58 0.83 0.61 0.52 0.58 0.71 0.54 0.44 0.52 0.44 0.40 0.34 0.33 0.30 0.26 0.19 0.19 0.19 0.18 0.16 0.18 0.20 0.19 0.13 0.13
0.61 0.43 0.29 0.23 0.08 0.04 0.05 0.05 0.06 0.06 0.10 0.09 0.11 0.17 0.14 0.06 0.05 0.08 0.17 0.43 0.36 0.36 0.42 0.46 0.38 0.40 0.43 0.52 0.55 0.54 0.53 0.47 0.38 0.34 0.51 0.44 0.43 0.37 0.30 0.26 0.24 0.25 0.18 0.16 0.21 0.23 0.21 0.20 0.20 0.16 0.11 0.09 0.11 0.12
0.37 0.23 0.16 0.13 0.07 0.05 0.05 0.05 0.06 0.07 0.06 0.11 0.13 0.11 0.06 0.06 0.06 0.15 0.26 0.39 0.33 0.38 0.41 0.43 0.41 0.31 0.33 0.35 0.34 0.32 0.34 0.34 0.25 0.21 0.34 0.29 0.28 0.29 0.25 0.21 0.18 0.18 0.16 0.18 0.24 0.22 0.16 0.11 0.09 0.10 0.10 0.11 0.14 0.18
0.19 0.11 0.05 0.06 0.11 0.12 0.11 0.07 0.07 0.10 0.13 0.17 0.13 0.11 0.14 0.13 0.14 0.27 0.29 0.29 0.30 0.41 0.36 0.32 0.24 0.23 0.26 0.25 0.21 0.20 0.15 0.11 0.10 0.14 0.16 0.15 0.15 0.16 0.24 0.31 0.32 0.33 0.21 0.19 0.20 0.21 0.21 0.19 0.16 0.15 0.16 0.14 0.14 0.23
0.07 0.03 0.05 0.08 0.13 0.15 0.15 0.13 0.16 0.20 0.22 0.22 0.19 0.17 0.21 0.18 0.29 0.39 0.34 0.39 0.30 0.24 0.19 0.17 0.14 0.11 0.12 0.12 0.11 0.08 0.06 0.05 0.05 0.04 0.05 0.08 0.11 0.14 0.15 0.16 0.16 0.13 0.12 0.15 0.16 0.18 0.21 0.23 0.21 0.19 0.19 0.21 0.20 0.20
0.11 0.11 0.11 0.14 0.13 0.14 0.21 0.22 0.25 0.26 0.26 0.25 0.18 0.19 0.21 0.33 0.47 0.37 0.36 0.28 0.24 0.17 0.14 0.15 0.18 0.10 0.07 0.04 0.03 0.06 0.08 0.09 0.09 0.06 0.05 0.07 0.14 0.15 0.11 0.11 0.12 0.12 0.11 0.10 0.11 0.17 0.20 0.23 0.21 0.19 0.24 0.27 0.21 0.25
0.07 0.08 0.08 0.04 0.09 0.16 0.24 0.16 0.18 0.14 0.08 0.07 0.07 0.12 0.14 0.35 0.58 0.41 0.29 0.22 0.16 0.16 0.16 0.14 0.13 0.07 0.06 0.06 0.04 0.06 0.12 0.10 0.13 0.18 0.18 0.14 0.15 0.14 0.10 0.10 0.10 0.10 0.11 0.12 0.11 0.09 0.13 0.15 0.17 0.23 0.25 0.22 0.28 0.32
0.03 0.04 0.03 0.04 0.12 0.18 0.14 0.10 0.11 0.09 0.05 0.03 0.03 0.06 0.16 0.26 0.29 0.22 0.18 0.21 0.15 0.14 0.11 0.07 0.08 0.09 0.08 0.08 0.12 0.12 0.15 0.16 0.15 0.16 0.16 0.16 0.14 0.13 0.11 0.08 0.08 0.10 0.10 0.12 0.11 0.11 0.14 0.17 0.23 0.26 0.25 0.23 0.23 0.22
0.03 0.04 0.04 0.06 0.15 0.14 0.20 0.23 0.15 0.12 0.09 0.06 0.08 0.06 0.12 0.11 0.14 0.22 0.19 0.20 0.17 0.10 0.12 0.13 0.12 0.16 0.18 0.18 0.19 0.19 0.17 0.16 0.14 0.13 0.14 0.14 0.13 0.11 0.08 0.07 0.09 0.09 0.09 0.09 0.09 0.11 0.12 0.14 0.16 0.15 0.15 0.13 0.12 0.12
0.03 0.04 0.05 0.05 0.08 0.09 0.09 0.13 0.07 0.06 0.07 0.08 0.13 0.13 0.14 0.15 0.27 0.33 0.22 0.21 0.25 0.20 0.21 0.21 0.22 0.24 0.25 0.21 0.19 0.17 0.14 0.13 0.12 0.11 0.10 0.09 0.06 0.05 0.05 0.06 0.08 0.09 0.09 0.09 0.09 0.11 0.09 0.08 0.09 0.11 0.12 0.12 0.11 0.10